SWR239N LSGG-LFKJ

Flight info

Callsign SWR239N
Flight time 1h 13m
Altitude 35000
Route MEDAM DCT NITAM DCT MOGBO DCT ENOBA DCT ERTEV DCT TORTU
Aircraft A319/M-SDE3FGHIRWY/LB1

Departure

Time 2026-05-07 16:41
Airport Geneva International Airport (LSGG)

Arrival

Time 2026-05-07 17:55
Airport Ajaccio Napoléon Bonaparte airport (LFKJ)
Time Latitude Longitude Altitude Speed Heading
2026-05-07 16:10 46.23542 6.10993 1386 ft 0 kts 136°
2026-05-07 16:11 46.23541 6.10993 1386 ft 0 kts 136°
2026-05-07 16:18 46.23542 6.10993 1387 ft 0 kts 136°
2026-05-07 16:18 46.23541 6.10993 1386 ft 0 kts 136°
2026-05-07 16:36 46.23531 6.11008 1386 ft 3 kts 136°
2026-05-07 16:36 46.23501 6.11046 1386 ft 6 kts 148°
2026-05-07 16:36 46.23461 6.11012 1387 ft 8 kts 226°
2026-05-07 16:37 46.23414 6.10941 1388 ft 12 kts 226°
2026-05-07 16:37 46.23343 6.10841 1389 ft 15 kts 214°
2026-05-07 16:37 46.23245 6.10771 1391 ft 17 kts 225°
2026-05-07 16:37 46.23159 6.10643 1393 ft 18 kts 226°
2026-05-07 16:38 46.23067 6.10509 1395 ft 18 kts 225°
2026-05-07 16:38 46.22978 6.10378 1398 ft 14 kts 237°
2026-05-07 16:38 46.22999 6.10272 1399 ft 11 kts 307°
2026-05-07 16:38 46.23011 6.10247 1400 ft 0 kts 302°
2026-05-07 16:39 46.23020 6.10207 1400 ft 10 kts 266°
2026-05-07 16:39 46.22951 6.10086 1402 ft 20 kts 223°
2026-05-07 16:39 46.22863 6.09902 1405 ft 22 kts 270°
2026-05-07 16:40 46.22789 6.09730 1407 ft 21 kts 224°
2026-05-07 16:40 46.22672 6.09557 1409 ft 26 kts 225°
2026-05-07 16:40 46.22557 6.09347 1411 ft 25 kts 256°
2026-05-07 16:40 46.22614 6.09163 1413 ft 22 kts 12°
2026-05-07 16:41 46.22751 6.09343 1411 ft 48 kts 46°
2026-05-07 16:41 46.23165 6.09954 1403 ft 120 kts 45°
2026-05-07 16:41 46.23879 6.11008 1513 ft 164 kts 47°
2026-05-07 16:41 46.24665 6.12173 2223 ft 163 kts 44°
2026-05-07 16:42 46.25433 6.13295 3040 ft 159 kts 45°
2026-05-07 16:42 46.26220 6.14449 3594 ft 169 kts 45°
2026-05-07 16:42 46.27080 6.15709 4056 ft 185 kts 45°
2026-05-07 16:42 46.28022 6.17092 4528 ft 202 kts 45°
2026-05-07 16:43 46.29040 6.18592 4983 ft 221 kts 45°
2026-05-07 16:43 46.30185 6.20280 5412 ft 245 kts 45°
2026-05-07 16:43 46.31423 6.22110 5965 ft 263 kts 45°
2026-05-07 16:43 46.32721 6.24027 6627 ft 276 kts 45°
2026-05-07 16:44 46.34083 6.26038 7487 ft 282 kts 46°
2026-05-07 16:44 46.35410 6.28115 8340 ft 287 kts 55°
2026-05-07 16:44 46.36144 6.30756 9187 ft 288 kts 84°
2026-05-07 16:44 46.35991 6.33595 10032 ft 288 kts 109°
2026-05-07 16:45 46.35053 6.36105 10737 ft 293 kts 133°
2026-05-07 16:45 46.33404 6.37895 11264 ft 304 kts 158°
2026-05-07 16:45 46.31343 6.38468 11939 ft 309 kts 184°
2026-05-07 16:45 46.29262 6.37670 12713 ft 311 kts 206°
2026-05-07 16:46 46.27359 6.36231 13475 ft 315 kts 208°
2026-05-07 16:46 46.25420 6.34763 14223 ft 320 kts 208°
2026-05-07 16:46 46.23432 6.33283 14971 ft 324 kts 208°
2026-05-07 16:46 46.21387 6.31891 15695 ft 329 kts 202°
2026-05-07 16:47 46.19223 6.30996 16315 ft 315 kts 192°
2026-05-07 16:47 46.17038 6.30634 16327 ft 321 kts 185°
2026-05-07 16:47 46.15213 6.30516 16227 ft 314 kts 184°
2026-05-07 16:47 46.14214 6.30468 16067 ft 313 kts 184°
2026-05-07 16:48 46.11986 6.30360 15825 ft 335 kts 184°
2026-05-07 16:48 46.10983 6.30308 15931 ft 341 kts 184°
2026-05-07 16:48 46.09877 6.30252 16207 ft 342 kts 184°
2026-05-07 16:49 46.07530 6.30128 17004 ft 339 kts 184°
2026-05-07 16:49 46.05147 6.29996 17709 ft 344 kts 184°
2026-05-07 16:49 46.02780 6.29859 18377 ft 348 kts 184°
2026-05-07 16:49 46.00388 6.29721 18834 ft 340 kts 184°
2026-05-07 16:50 45.97998 6.29578 18873 ft 357 kts 184°
2026-05-07 16:50 45.95489 6.29428 19425 ft 362 kts 184°
2026-05-07 16:50 45.92970 6.29280 20178 ft 363 kts 184°
2026-05-07 16:50 45.90451 6.29350 20817 ft 368 kts 173°
2026-05-07 16:51 45.87987 6.30378 21452 ft 374 kts 157°
2026-05-07 16:51 45.85815 6.32253 21777 ft 354 kts 146°
2026-05-07 16:51 45.83799 6.34403 21643 ft 374 kts 144°
2026-05-07 16:51 45.81695 6.36707 22043 ft 383 kts 144°
2026-05-07 16:52 45.79589 6.38991 22533 ft 385 kts 145°
2026-05-07 16:52 45.77448 6.41275 23124 ft 388 kts 145°
2026-05-07 16:52 45.75282 6.43569 23736 ft 390 kts 145°
2026-05-07 16:52 45.73106 6.45871 24292 ft 393 kts 146°
2026-05-07 16:53 45.70874 6.48231 24842 ft 396 kts 146°
2026-05-07 16:53 45.68670 6.50559 25354 ft 400 kts 146°
2026-05-07 16:53 45.66431 6.52923 25833 ft 403 kts 146°
2026-05-07 16:53 45.64172 6.55307 26296 ft 407 kts 146°
2026-05-07 16:54 45.61888 6.57712 26747 ft 410 kts 147°
2026-05-07 16:54 45.59595 6.60126 27190 ft 413 kts 147°
2026-05-07 16:54 45.57293 6.62546 27630 ft 415 kts 147°
2026-05-07 16:54 45.54960 6.64999 28062 ft 418 kts 147°
2026-05-07 16:55 45.52620 6.67464 28475 ft 421 kts 148°
2026-05-07 16:55 45.50270 6.69943 28887 ft 423 kts 148°
2026-05-07 16:55 45.47897 6.72433 29269 ft 426 kts 148°
2026-05-07 16:55 45.45488 6.74951 29639 ft 428 kts 148°
2026-05-07 16:56 45.43076 6.77407 30001 ft 430 kts 149°
2026-05-07 16:56 45.40645 6.79842 30373 ft 431 kts 150°
2026-05-07 16:56 45.35762 6.84720 31405 ft 428 kts 150°
2026-05-07 16:57 45.33338 6.87143 31902 ft 427 kts 150°
2026-05-07 16:57 45.30930 6.89551 32384 ft 425 kts 150°
2026-05-07 16:57 45.28509 6.92001 32839 ft 426 kts 149°
2026-05-07 16:57 45.26204 6.94582 33277 ft 427 kts 146°
2026-05-07 16:58 45.23987 6.97387 33699 ft 429 kts 142°
2026-05-07 16:58 45.21831 7.00350 34051 ft 431 kts 141°
2026-05-07 16:58 45.19704 7.03297 34369 ft 432 kts 141°
2026-05-07 16:58 45.17559 7.06259 34683 ft 433 kts 142°
2026-05-07 16:59 45.15404 7.09227 34901 ft 434 kts 142°
2026-05-07 16:59 45.13232 7.12228 34978 ft 441 kts 140°
2026-05-07 16:59 45.11121 7.15410 34980 ft 452 kts 136°
2026-05-07 16:59 45.09101 7.18869 34984 ft 462 kts 133°
2026-05-07 17:00 45.05300 7.26421 35005 ft 478 kts 129°
2026-05-07 17:00 45.01491 7.34152 35012 ft 489 kts 130°
2026-05-07 17:01 44.97297 7.41726 34996 ft 492 kts 137°
2026-05-07 17:01 44.92437 7.48527 35039 ft 493 kts 142°
2026-05-07 17:02 44.89961 7.51815 35225 ft 491 kts 142°
2026-05-07 17:02 44.87456 7.55129 35477 ft 487 kts 142°
2026-05-07 17:02 44.84971 7.58383 35710 ft 484 kts 142°
2026-05-07 17:02 44.82532 7.61541 35927 ft 481 kts 143°
2026-05-07 17:03 44.80054 7.64713 36156 ft 478 kts 143°
2026-05-07 17:03 44.77612 7.67815 36340 ft 476 kts 144°
2026-05-07 17:03 44.75165 7.70922 36590 ft 473 kts 144°
2026-05-07 17:03 44.72728 7.74016 36854 ft 471 kts 144°
2026-05-07 17:04 44.70299 7.77103 37119 ft 468 kts 144°
2026-05-07 17:04 44.67907 7.80142 37395 ft 466 kts 144°
2026-05-07 17:04 44.65526 7.83168 37668 ft 463 kts 144°
2026-05-07 17:04 44.63142 7.86198 37942 ft 460 kts 144°
2026-05-07 17:05 44.60788 7.89192 38225 ft 458 kts 144°
2026-05-07 17:05 44.58437 7.92182 38489 ft 455 kts 144°
2026-05-07 17:05 44.56137 7.95109 38751 ft 452 kts 144°
2026-05-07 17:05 44.53810 7.98069 39024 ft 449 kts 144°
2026-05-07 17:06 44.51500 8.01008 39276 ft 446 kts 144°
2026-05-07 17:06 44.49223 8.03904 39510 ft 443 kts 143°
2026-05-07 17:06 44.46978 8.06761 39714 ft 440 kts 144°
2026-05-07 17:06 44.44707 8.09650 39942 ft 437 kts 144°
2026-05-07 17:07 44.42477 8.12486 40161 ft 433 kts 144°
2026-05-07 17:07 44.40276 8.15288 40359 ft 430 kts 143°
2026-05-07 17:07 44.38092 8.18065 40553 ft 427 kts 143°
2026-05-07 17:07 44.35892 8.20864 40748 ft 423 kts 143°
2026-05-07 17:08 44.33751 8.23588 40928 ft 420 kts 144°
2026-05-07 17:08 44.31612 8.26307 41091 ft 417 kts 143°
2026-05-07 17:08 44.29468 8.29031 41228 ft 414 kts 143°
2026-05-07 17:08 44.27357 8.31711 41356 ft 412 kts 143°
2026-05-07 17:09 44.25249 8.34385 41494 ft 410 kts 144°
2026-05-07 17:09 44.23136 8.37063 41619 ft 407 kts 144°
2026-05-07 17:09 44.21066 8.39683 41732 ft 405 kts 143°
2026-05-07 17:09 44.18984 8.42315 41839 ft 403 kts 143°
2026-05-07 17:10 44.14858 8.47518 42026 ft 399 kts 143°
2026-05-07 17:10 44.10766 8.52659 42067 ft 400 kts 144°
2026-05-07 17:11 44.06594 8.57862 42057 ft 403 kts 144°
2026-05-07 17:11 44.02445 8.63003 42099 ft 403 kts 144°
2026-05-07 17:12 43.98260 8.68177 42183 ft 402 kts 144°
2026-05-07 17:12 43.94135 8.73376 42265 ft 401 kts 144°
2026-05-07 17:13 43.89843 8.78246 42226 ft 398 kts 150°
2026-05-07 17:13 43.87567 8.80373 41884 ft 396 kts 159°
2026-05-07 17:13 43.85046 8.81842 41104 ft 393 kts 174°
2026-05-07 17:14 43.82374 8.82272 40207 ft 392 kts 186°
2026-05-07 17:14 43.79631 8.82527 39414 ft 407 kts 175°
2026-05-07 17:14 43.76893 8.83760 38842 ft 419 kts 162°
2026-05-07 17:14 43.74338 8.85696 38404 ft 422 kts 156°
2026-05-07 17:15 43.71898 8.87933 37885 ft 424 kts 153°
2026-05-07 17:15 43.69461 8.90143 37235 ft 421 kts 158°
2026-05-07 17:15 43.66887 8.92032 36630 ft 417 kts 163°
2026-05-07 17:15 43.64243 8.93534 36091 ft 411 kts 169°
2026-05-07 17:16 43.61528 8.94661 35572 ft 406 kts 175°
2026-05-07 17:16 43.58808 8.95401 35176 ft 398 kts 180°
2026-05-07 17:16 43.56072 8.95780 34990 ft 394 kts 186°
2026-05-07 17:16 43.53357 8.95852 34976 ft 392 kts 188°
2026-05-07 17:17 43.47878 8.95858 34970 ft 392 kts 188°
2026-05-07 17:17 43.42488 8.95658 34967 ft 387 kts 193°
2026-05-07 17:18 43.37199 8.94652 34968 ft 380 kts 199°
2026-05-07 17:18 43.32181 8.92884 34414 ft 369 kts 205°
2026-05-07 17:19 43.29736 8.91794 33730 ft 369 kts 205°
2026-05-07 17:19 43.27298 8.90713 33086 ft 369 kts 205°
2026-05-07 17:19 43.24850 8.89627 32378 ft 370 kts 205°
2026-05-07 17:19 43.22425 8.88552 31603 ft 373 kts 205°
2026-05-07 17:20 43.19949 8.87451 30721 ft 374 kts 205°
2026-05-07 17:20 43.17486 8.86361 29455 ft 376 kts 205°
2026-05-07 17:20 43.15008 8.85255 28168 ft 375 kts 204°
2026-05-07 17:20 43.12562 8.84169 27039 ft 370 kts 204°
2026-05-07 17:21 43.10160 8.83106 25924 ft 366 kts 203°
2026-05-07 17:21 43.07770 8.82052 24803 ft 363 kts 202°
2026-05-07 17:21 43.05376 8.80993 23670 ft 361 kts 202°
2026-05-07 17:21 43.03028 8.79956 22654 ft 360 kts 202°
2026-05-07 17:22 43.00641 8.78902 21986 ft 360 kts 201°
2026-05-07 17:22 42.98271 8.77861 21507 ft 356 kts 201°
2026-05-07 17:22 42.95932 8.76835 21050 ft 352 kts 201°
2026-05-07 17:22 42.93610 8.75816 20589 ft 350 kts 201°
2026-05-07 17:23 42.91304 8.74802 20112 ft 348 kts 201°
2026-05-07 17:23 42.89018 8.73800 19648 ft 346 kts 200°
2026-05-07 17:23 42.86740 8.72807 19181 ft 344 kts 200°
2026-05-07 17:23 42.84462 8.71814 18696 ft 342 kts 200°
2026-05-07 17:24 42.82232 8.70841 18246 ft 340 kts 200°
2026-05-07 17:24 42.79979 8.69857 17794 ft 338 kts 199°
2026-05-07 17:24 42.77751 8.68885 17331 ft 337 kts 199°
2026-05-07 17:24 42.75520 8.67912 16876 ft 335 kts 199°
2026-05-07 17:25 42.73301 8.66944 16439 ft 333 kts 199°
2026-05-07 17:25 42.71115 8.65991 16004 ft 331 kts 199°
2026-05-07 17:25 42.68923 8.65035 15576 ft 329 kts 199°
2026-05-07 17:25 42.66744 8.64086 15147 ft 327 kts 199°
2026-05-07 17:26 42.64608 8.63155 14705 ft 326 kts 199°
2026-05-07 17:26 42.62458 8.62219 14265 ft 324 kts 199°
2026-05-07 17:26 42.60317 8.61286 13837 ft 323 kts 199°
2026-05-07 17:26 42.58165 8.60351 13380 ft 322 kts 198°
2026-05-07 17:27 42.56041 8.59428 12953 ft 320 kts 198°
2026-05-07 17:27 42.53941 8.58518 12522 ft 318 kts 198°
2026-05-07 17:27 42.51853 8.57613 12103 ft 315 kts 198°
2026-05-07 17:27 42.49754 8.56703 11667 ft 313 kts 198°
2026-05-07 17:28 42.47702 8.55815 11229 ft 311 kts 198°
2026-05-07 17:28 42.45636 8.54921 10794 ft 309 kts 198°
2026-05-07 17:28 42.43605 8.54042 10363 ft 307 kts 198°
2026-05-07 17:28 42.41592 8.53171 9946 ft 305 kts 198°
2026-05-07 17:29 42.39578 8.52301 9500 ft 303 kts 198°
2026-05-07 17:29 42.37601 8.51448 9290 ft 293 kts 198°
2026-05-07 17:29 42.35692 8.50624 9109 ft 283 kts 198°
2026-05-07 17:29 42.33823 8.49819 8813 ft 279 kts 198°
2026-05-07 17:30 42.31982 8.49025 8421 ft 278 kts 198°
2026-05-07 17:30 42.30143 8.48232 8053 ft 277 kts 198°
2026-05-07 17:30 42.28320 8.47447 7672 ft 276 kts 198°
2026-05-07 17:30 42.26510 8.46668 7307 ft 274 kts 198°
2026-05-07 17:31 42.24693 8.45888 6931 ft 273 kts 197°
2026-05-07 17:31 42.22869 8.45144 6549 ft 272 kts 191°
2026-05-07 17:31 42.20993 8.45043 6159 ft 271 kts 171°
2026-05-07 17:31 42.19198 8.45698 5810 ft 268 kts 161°
2026-05-07 17:32 42.17439 8.46537 5434 ft 268 kts 160°
2026-05-07 17:32 42.15678 8.47395 5060 ft 267 kts 160°
2026-05-07 17:32 42.13929 8.48238 4704 ft 266 kts 160°
2026-05-07 17:32 42.12190 8.49068 4345 ft 265 kts 160°
2026-05-07 17:33 42.10458 8.49887 3988 ft 264 kts 160°
2026-05-07 17:33 42.08730 8.50701 3638 ft 263 kts 160°
2026-05-07 17:33 42.07016 8.51506 3286 ft 262 kts 160°
2026-05-07 17:33 42.05303 8.52312 3021 ft 258 kts 160°
2026-05-07 17:34 42.03650 8.53086 2980 ft 244 kts 160°
2026-05-07 17:34 42.02081 8.53820 2972 ft 230 kts 160°
2026-05-07 17:34 42.00678 8.54627 2942 ft 215 kts 143°
2026-05-07 17:34 41.99679 8.56015 2941 ft 197 kts 118°
2026-05-07 17:35 41.99227 8.57648 3029 ft 183 kts 98°
2026-05-07 17:35 41.99231 8.59257 3013 ft 167 kts 79°
2026-05-07 17:35 41.99544 8.60756 2995 ft 164 kts 72°
2026-05-07 17:35 41.99910 8.62199 2988 ft 163 kts 71°
2026-05-07 17:36 42.00281 8.63645 2984 ft 163 kts 71°
2026-05-07 17:36 42.00630 8.65098 2982 ft 160 kts 76°
2026-05-07 17:36 42.00754 8.66486 2948 ft 141 kts 90°
2026-05-07 17:36 42.00656 8.67766 2963 ft 137 kts 98°
2026-05-07 17:37 42.00492 8.69031 2979 ft 136 kts 99°
2026-05-07 17:37 42.00324 8.70280 2989 ft 136 kts 99°
2026-05-07 17:37 42.00157 8.71533 2986 ft 136 kts 99°
2026-05-07 17:37 41.99992 8.72789 2981 ft 136 kts 99°
2026-05-07 17:38 41.99826 8.74046 2812 ft 136 kts 99°
2026-05-07 17:38 41.99665 8.75282 2604 ft 135 kts 99°
2026-05-07 17:38 41.99501 8.76520 2391 ft 135 kts 99°
2026-05-07 17:38 41.99340 8.77759 2177 ft 134 kts 99°
2026-05-07 17:39 41.99178 8.78989 1968 ft 134 kts 99°
2026-05-07 17:39 41.99016 8.80228 1757 ft 134 kts 99°
2026-05-07 17:39 41.98741 8.81421 1539 ft 134 kts 119°
2026-05-07 17:39 41.98125 8.82335 1332 ft 134 kts 144°
2026-05-07 17:40 41.97272 8.82823 1125 ft 134 kts 171°
2026-05-07 17:40 41.96354 8.82783 924 ft 133 kts 196°
2026-05-07 17:40 41.95496 8.82313 725 ft 133 kts 207°
2026-05-07 17:40 41.94696 8.81694 512 ft 132 kts 209°
2026-05-07 17:41 41.93877 8.81167 296 ft 131 kts 206°
2026-05-07 17:41 41.93042 8.80649 128 ft 130 kts 207°
2026-05-07 17:41 41.92244 8.80160 68 ft 122 kts 206°
2026-05-07 17:41 41.91449 8.79629 502 ft 131 kts 210°
2026-05-07 17:42 41.90643 8.79009 1050 ft 138 kts 212°
2026-05-07 17:42 41.89844 8.78319 1696 ft 138 kts 213°
2026-05-07 17:42 41.89025 8.77588 2167 ft 150 kts 213°
2026-05-07 17:42 41.88112 8.76777 2614 ft 168 kts 213°
2026-05-07 17:43 41.87054 8.75834 2957 ft 199 kts 213°
2026-05-07 17:43 41.85881 8.74521 3008 ft 243 kts 226°
2026-05-07 17:43 41.84786 8.72764 2861 ft 241 kts 232°
2026-05-07 17:43 41.83803 8.71060 2899 ft 224 kts 232°
2026-05-07 17:44 41.82864 8.69443 2950 ft 217 kts 231°
2026-05-07 17:44 41.81927 8.67868 2980 ft 216 kts 231°
2026-05-07 17:44 41.81050 8.66245 2980 ft 216 kts 247°
2026-05-07 17:44 41.80932 8.64299 2982 ft 211 kts 291°
2026-05-07 17:45 41.81798 8.62781 2990 ft 207 kts 329°
2026-05-07 17:45 41.83109 8.62081 2995 ft 207 kts 347°
2026-05-07 17:45 41.84524 8.61584 2989 ft 209 kts 346°
2026-05-07 17:45 41.85935 8.61056 2986 ft 210 kts 345°
2026-05-07 17:46 41.87337 8.60484 2986 ft 211 kts 344°
2026-05-07 17:46 41.88728 8.59887 2986 ft 211 kts 344°
2026-05-07 17:46 41.90130 8.59273 2986 ft 211 kts 343°
2026-05-07 17:46 41.91546 8.58645 2996 ft 208 kts 343°
2026-05-07 17:47 41.92850 8.58060 3048 ft 192 kts 343°
2026-05-07 17:47 41.94068 8.57511 2994 ft 177 kts 343°
2026-05-07 17:47 41.95199 8.57010 2978 ft 167 kts 347°
2026-05-07 17:47 41.96330 8.56850 3003 ft 164 kts
2026-05-07 17:48 41.97440 8.57198 3006 ft 163 kts 24°
2026-05-07 17:48 41.98398 8.57998 2995 ft 162 kts 42°
2026-05-07 17:48 41.99108 8.59159 2987 ft 161 kts 60°
2026-05-07 17:48 41.99524 8.60467 2954 ft 142 kts 71°
2026-05-07 17:49 41.99819 8.61691 2957 ft 136 kts 72°
2026-05-07 17:49 42.00106 8.62913 2971 ft 135 kts 72°
2026-05-07 17:49 42.00393 8.64114 2975 ft 135 kts 72°
2026-05-07 17:49 42.00649 8.65325 2974 ft 135 kts 79°
2026-05-07 17:50 42.00727 8.66581 2980 ft 135 kts 92°
2026-05-07 17:50 42.00613 8.67850 2986 ft 135 kts 99°
2026-05-07 17:50 42.00449 8.69086 2982 ft 135 kts 99°
2026-05-07 17:50 42.00280 8.70336 2981 ft 135 kts 99°
2026-05-07 17:51 42.00114 8.71586 2976 ft 135 kts 99°
2026-05-07 17:51 41.99950 8.72825 2972 ft 135 kts 98°
2026-05-07 17:51 41.99786 8.74078 2790 ft 135 kts 98°
2026-05-07 17:51 41.99623 8.75320 2585 ft 135 kts 98°
2026-05-07 17:52 41.99462 8.76549 2364 ft 134 kts 98°
2026-05-07 17:52 41.99302 8.77777 2155 ft 134 kts 99°
2026-05-07 17:52 41.99141 8.79007 1946 ft 134 kts 98°
2026-05-07 17:52 41.98981 8.80233 1739 ft 133 kts 99°
2026-05-07 17:53 41.98701 8.81418 1519 ft 133 kts 119°
2026-05-07 17:53 41.98080 8.82320 1305 ft 133 kts 145°
2026-05-07 17:53 41.97214 8.82764 1085 ft 134 kts 175°
2026-05-07 17:53 41.96288 8.82652 864 ft 134 kts 196°
2026-05-07 17:54 41.95440 8.82178 644 ft 133 kts 209°
2026-05-07 17:54 41.94617 8.81617 420 ft 133 kts 204°
2026-05-07 17:54 41.93775 8.81106 264 ft 132 kts 206°
2026-05-07 17:54 41.92940 8.80587 79 ft 131 kts 206°
2026-05-07 17:55 41.92176 8.80102 38 ft 89 kts 204°
2026-05-07 17:55 41.91825 8.79888 37 ft 42 kts 202°
2026-05-07 17:55 41.91565 8.79726 38 ft 39 kts 206°
2026-05-07 17:55 41.91324 8.79575 38 ft 36 kts 200°
2026-05-07 17:56 41.91285 8.79413 38 ft 19 kts 319°
2026-05-07 17:56 41.91404 8.79337 38 ft 19 kts 348°
2026-05-07 17:56 41.91530 8.79376 38 ft 19 kts 26°
2026-05-07 17:56 41.91653 8.79454 37 ft 19 kts 24°
2026-05-07 17:57 41.91777 8.79529 37 ft 17 kts 26°
2026-05-07 17:57 41.91822 8.79539 37 ft 6 kts 300°
2026-05-07 17:57 41.91852 8.79504 38 ft 0 kts 345°